{"data":{"norad_id":44781,"intl_designator":"2019-076C","name":"NINGXIA-1 3","alt_names":[],"object_type":"PAYLOAD","status":"ACTIVE","operator":null,"country":"PRC","launch_date":"2019-11-13","launch_site_code":"TAISC","launch_vehicle":null,"mission":null,"orbit_class":"UNKNOWN","rcs_meters":null,"size_class":null,"mass_kg":null,"dimensions":null,"purposes":[],"wikipedia_slug":null,"has_3d_model":false,"image_url":null,"decayed_at":null,"tle_current":{"epoch":"2026-09-20T05:00:56.748960Z","epoch_age_seconds":86878,"freshness":"FRESH","line1":"1 44781U 19076C   26263.20899015 -.00000073  00000+0  37073-4 0  9994","line2":"2 44781  44.9996 113.7199 0010230 236.1582 123.8278 14.02013064351192","mean_motion":14.02013064,"eccentricity":0.001023,"inclination_deg":44.9996,"raan_deg":113.7199,"arg_perigee_deg":236.1582,"mean_anomaly_deg":123.8278,"bstar":3.7073e-5,"rev_number":35119,"period_min":102.70945663599,"perigee_km":879.40053100966,"apogee_km":894.26465880083,"semimajor_km":7264.9695949052,"source":"CELESTRAK","updated_at":"2026-09-20T09:00:14.542338Z"}}}